TimeEDT,TemperatureF,Dew PointF,Humidity,Sea Level PressureIn,VisibilityMPH,Wind Direction,Wind SpeedMPH,Gust SpeedMPH,PrecipitationIn,Events,Conditions,WindDirDegrees,DateUTC
12:15 AM,46.6,40.1,78,30.08,10.0,ESE,6.9,-,N/A,,Clear,120,2013-04-28 04:15:00
12:35 AM,46.2,39.4,77,30.08,10.0,SSE,5.8,-,N/A,,Clear,150,2013-04-28 04:35:00
12:55 AM,46.2,39.6,78,30.07,10.0,SE,4.6,-,N/A,,Clear,130,2013-04-28 04:55:00
1:15 AM,45.5,39.2,79,30.07,10.0,SSE,4.6,-,N/A,,Clear,160,2013-04-28 05:15:00
1:35 AM,45.0,38.8,79,30.07,10.0,East,3.5,-,N/A,,Clear,100,2013-04-28 05:35:00
1:55 AM,47.1,39.4,74,30.06,10.0,ESE,9.2,-,N/A,,Clear,120,2013-04-28 05:55:00
2:15 AM,46.8,38.7,73,30.05,10.0,ESE,5.8,-,N/A,,Clear,120,2013-04-28 06:15:00
2:36 AM,45.3,38.7,78,30.05,10.0,SE,6.9,-,N/A,,Clear,130,2013-04-28 06:36:00
2:55 AM,43.2,37.8,81,30.04,10.0,SE,8.1,-,N/A,,Clear,130,2013-04-28 06:55:00
3:15 AM,47.7,38.7,71,30.04,10.0,SE,6.9,-,N/A,,Clear,130,2013-04-28 07:15:00
3:36 AM,46.6,38.7,74,30.03,10.0,SE,9.2,-,N/A,,Clear,130,2013-04-28 07:36:00
3:55 AM,43.2,37.8,81,30.03,10.0,Calm,Calm,-,N/A,,Clear,0,2013-04-28 07:55:00
4:15 AM,40.5,36.0,84,30.02,10.0,ESE,6.9,-,N/A,,Clear,120,2013-04-28 08:15:00
4:36 AM,43.0,37.0,80,30.02,10.0,SE,5.8,-,N/A,,Clear,140,2013-04-28 08:36:00
4:55 AM,40.1,35.2,83,30.02,10.0,SE,5.8,-,N/A,,Clear,140,2013-04-28 08:55:00
5:15 AM,38.7,35.4,88,30.02,10.0,SSE,4.6,-,N/A,,Clear,160,2013-04-28 09:15:00
5:36 AM,38.3,35.4,89,30.01,10.0,South,4.6,-,N/A,,Clear,190,2013-04-28 09:36:00
5:55 AM,38.3,35.8,91,30.00,10.0,SSE,5.8,-,N/A,,Clear,150,2013-04-28 09:55:00
6:15 AM,37.2,34.5,90,30.00,7.0,SSE,4.6,-,N/A,,Clear,150,2013-04-28 10:15:00
6:35 AM,37.4,35.1,91,30.00,5.0,SSE,3.5,-,N/A,,Clear,150,2013-04-28 10:35:00
6:55 AM,37.8,35.6,92,30.00,5.0,SE,5.8,-,N/A,,Clear,140,2013-04-28 10:55:00
7:15 AM,38.5,36.3,92,30.01,7.0,SE,6.9,-,N/A,,Clear,140,2013-04-28 11:15:00
7:36 AM,40.3,37.6,90,30.01,10.0,ESE,5.8,-,N/A,,Clear,120,2013-04-28 11:36:00
7:55 AM,41.2,37.8,88,30.02,10.0,ESE,4.6,-,N/A,,Clear,110,2013-04-28 11:55:00
8:15 AM,42.3,37.8,84,30.02,10.0,East,4.6,-,N/A,,Clear,100,2013-04-28 12:15:00
8:35 AM,42.4,37.9,84,30.02,10.0,East,3.5,-,N/A,,Clear,90,2013-04-28 12:35:00
9:15 AM,45.5,38.3,76,30.01,10.0,East,3.5,-,N/A,,Clear,100,2013-04-28 13:15:00
9:35 AM,47.8,39.2,72,30.01,10.0,Calm,Calm,-,N/A,,Clear,0,2013-04-28 13:35:00
9:55 AM,50.4,39.0,65,30.00,10.0,East,3.5,-,N/A,,Scattered Clouds,90,2013-04-28 13:55:00
10:15 AM,50.7,38.5,63,30.00,10.0,Calm,Calm,-,N/A,,Mostly Cloudy,0,2013-04-28 14:15:00
10:35 AM,49.5,38.3,65,30.00,10.0,East,3.5,-,N/A,,Overcast,90,2013-04-28 14:35:00
10:55 AM,51.1,38.8,63,29.99,10.0,Calm,Calm,-,N/A,,Overcast,0,2013-04-28 14:55:00
11:16 AM,53.2,38.3,57,29.98,10.0,Calm,Calm,-,N/A,,Overcast,0,2013-04-28 15:16:00
11:35 AM,53.8,38.8,57,29.98,10.0,ESE,5.8,-,N/A,,Overcast,110,2013-04-28 15:35:00
11:55 AM,53.1,38.3,57,29.98,10.0,Calm,Calm,-,N/A,,Overcast,0,2013-04-28 15:55:00
12:15 PM,53.2,37.8,56,29.97,10.0,East,5.8,-,N/A,,Overcast,100,2013-04-28 16:15:00
12:35 PM,53.8,37.6,54,29.97,10.0,East,5.8,-,N/A,,Overcast,90,2013-04-28 16:35:00
12:55 PM,52.9,36.9,55,29.96,10.0,ESE,12.7,18.4,N/A,,Overcast,110,2013-04-28 16:55:00
1:16 PM,52.2,36.3,55,29.95,10.0,East,13.8,20.7,N/A,,Overcast,100,2013-04-28 17:16:00
1:35 PM,51.3,36.0,56,29.95,10.0,East,15.0,20.7,N/A,,Overcast,100,2013-04-28 17:35:00
1:55 PM,50.0,36.3,59,29.95,10.0,East,13.8,20.7,N/A,,Overcast,100,2013-04-28 17:55:00
2:15 PM,47.3,36.5,66,29.94,10.0,East,11.5,21.9,N/A,,Overcast,100,2013-04-28 18:15:00
2:35 PM,47.3,37.0,68,29.93,10.0,East,10.4,17.3,N/A,,Overcast,100,2013-04-28 18:35:00
2:55 PM,46.9,37.2,69,29.92,10.0,East,12.7,20.7,N/A,,Overcast,90,2013-04-28 18:55:00
3:15 PM,47.5,37.2,68,29.92,10.0,East,15.0,23.0,N/A,,Overcast,90,2013-04-28 19:15:00
3:35 PM,48.2,36.9,65,29.91,10.0,East,17.3,23.0,N/A,,Mostly Cloudy,90,2013-04-28 19:35:00
3:55 PM,47.5,37.0,67,29.90,10.0,East,17.3,23.0,N/A,,Mostly Cloudy,90,2013-04-28 19:55:00
4:15 PM,46.8,37.0,69,29.89,10.0,East,18.4,25.3,N/A,,Mostly Cloudy,100,2013-04-28 20:15:00
4:35 PM,46.8,37.0,69,29.89,10.0,East,19.6,26.5,N/A,,Overcast,100,2013-04-28 20:35:00
4:55 PM,47.3,37.4,68,29.88,10.0,East,17.3,24.2,N/A,,Overcast,90,2013-04-28 20:55:00
5:15 PM,47.3,37.4,68,29.87,10.0,East,17.3,26.5,N/A,,Overcast,90,2013-04-28 21:15:00
5:35 PM,45.7,37.2,72,29.87,10.0,East,16.1,25.3,N/A,,Mostly Cloudy,90,2013-04-28 21:35:00
5:55 PM,46.4,37.6,71,29.86,10.0,East,17.3,24.2,N/A,,Mostly Cloudy,90,2013-04-28 21:55:00
6:15 PM,46.2,37.8,72,29.85,10.0,East,17.3,21.9,N/A,,Scattered Clouds,80,2013-04-28 22:15:00
6:35 PM,45.5,37.6,74,29.85,10.0,East,13.8,20.7,N/A,,Clear,90,2013-04-28 22:35:00
6:55 PM,44.6,37.6,76,29.84,10.0,East,13.8,21.9,N/A,,Clear,100,2013-04-28 22:55:00
7:15 PM,44.4,37.8,77,29.83,10.0,East,10.4,16.1,N/A,,Clear,90,2013-04-28 23:15:00
7:35 PM,45.0,38.3,77,29.83,10.0,East,9.2,-,N/A,,Mostly Cloudy,100,2013-04-28 23:35:00
8:15 PM,48.4,39.6,72,29.82,10.0,ESE,9.2,-,N/A,,Overcast,110,2013-04-29 00:15:00
8:35 PM,51.1,40.8,68,29.82,10.0,ESE,5.8,-,N/A,,Overcast,120,2013-04-29 00:35:00
8:55 PM,53.4,41.9,65,29.82,10.0,SE,6.9,-,N/A,,Scattered Clouds,130,2013-04-29 00:55:00
9:15 PM,54.3,42.3,64,29.83,10.0,SE,8.1,-,N/A,,Scattered Clouds,140,2013-04-29 01:15:00
9:35 PM,58.1,43.3,58,29.84,10.0,SE,8.1,17.3,N/A,,Scattered Clouds,130,2013-04-29 01:35:00
9:55 PM,58.5,43.7,58,29.84,10.0,SE,10.4,19.6,N/A,,Clear,140,2013-04-29 01:55:00
10:15 PM,58.5,44.1,59,29.85,10.0,SE,10.4,18.4,N/A,,Clear,130,2013-04-29 02:15:00
10:36 PM,58.1,44.2,60,29.85,10.0,SE,9.2,17.3,N/A,,Clear,140,2013-04-29 02:36:00
10:55 PM,57.7,44.8,62,29.84,10.0,SE,11.5,18.4,N/A,,Clear,140,2013-04-29 02:55:00
11:15 PM,57.0,45.0,64,29.84,10.0,SE,10.4,16.1,N/A,,Clear,130,2013-04-29 03:15:00
11:55 PM,56.3,45.9,68,29.83,10.0,SE,9.2,16.1,N/A,,Clear,140,2013-04-29 03:55:00